Time,TemperatureF,DewpointF,PressureIn,WindDirection,WindDirectionDegrees,WindSpeedMPH,WindSpeedGustMPH,Humidity,HourlyPrecipIn,Conditions,Clouds,dailyrainin,SoftwareType,DateUTC
2013-03-11 00:10:00,36.0,20.5,29.93,SW,225,0.0,-999.0,53,-99.99,,,0.00,Acu-Link.com,2013-03-11 06:10:00,
2013-03-11 00:25:00,35.4,21.3,29.94,South,180,0.0,-999.0,56,-99.99,,,0.00,Acu-Link.com,2013-03-11 06:25:00,
2013-03-11 00:40:00,34.5,20.9,29.94,West,270,0.0,-999.0,57,-99.99,,,0.00,Acu-Link.com,2013-03-11 06:40:00,
2013-03-11 00:56:00,33.4,21.0,29.95,West,270,0.0,-999.0,60,-99.99,,,0.00,Acu-Link.com,2013-03-11 06:56:00,
2013-03-11 01:42:00,32.2,20.7,29.96,WSW,247,0.0,-999.0,62,-99.99,,,0.00,Acu-Link.com,2013-03-11 07:42:00,
2013-03-11 01:57:00,31.5,20.7,29.96,SSW,202,0.0,-999.0,64,-99.99,,,0.00,Acu-Link.com,2013-03-11 07:57:00,
2013-03-11 02:12:00,31.3,20.9,29.96,East,90,0.0,-999.0,65,-99.99,,,0.00,Acu-Link.com,2013-03-11 08:12:00,
2013-03-11 02:28:00,33.3,22.5,29.95,ENE,67,2.7,-999.0,64,-99.99,,,0.00,Acu-Link.com,2013-03-11 08:28:00,
2013-03-11 02:43:00,33.3,22.1,29.95,West,270,0.0,-999.0,63,-99.99,,,0.00,Acu-Link.com,2013-03-11 08:43:00,
2013-03-11 02:58:00,32.5,21.7,29.95,SSE,157,0.0,-999.0,64,-99.99,,,0.00,Acu-Link.com,2013-03-11 08:58:00,
2013-03-11 03:13:00,32.5,22.1,29.94,ENE,67,0.0,-999.0,65,-99.99,,,0.00,Acu-Link.com,2013-03-11 09:13:00,
2013-03-11 03:29:00,33.8,22.9,29.93,ESE,112,2.2,-999.0,64,-99.99,,,0.00,Acu-Link.com,2013-03-11 09:29:00,
2013-03-11 03:44:00,36.7,23.3,29.93,NE,45,2.7,-999.0,58,-99.99,,,0.00,Acu-Link.com,2013-03-11 09:44:00,
2013-03-11 03:59:00,36.3,23.0,29.91,NNW,337,1.7,-999.0,58,-99.99,,,0.00,Acu-Link.com,2013-03-11 09:59:00,
2013-03-11 04:14:00,36.0,22.7,29.92,NE,45,2.7,-999.0,58,-99.99,,,0.00,Acu-Link.com,2013-03-11 10:14:00,
2013-03-11 04:30:00,34.5,22.1,29.91,East,90,0.0,-999.0,60,-99.99,,,0.00,Acu-Link.com,2013-03-11 10:30:00,
2013-03-11 04:45:00,34.9,22.4,29.91,NE,45,0.0,-999.0,60,-99.99,,,0.00,Acu-Link.com,2013-03-11 10:45:00,
2013-03-11 05:00:00,33.3,22.1,29.92,SSW,202,0.0,-999.0,63,-99.99,,,0.00,Acu-Link.com,2013-03-11 11:00:00,
2013-03-11 05:16:00,32.0,21.2,29.90,WSW,247,0.0,-999.0,64,-99.99,,,0.00,Acu-Link.com,2013-03-11 11:16:00,
2013-03-11 05:46:00,32.5,22.1,29.91,East,90,0.0,-999.0,65,-99.99,,,0.00,Acu-Link.com,2013-03-11 11:46:00,
2013-03-11 06:02:00,32.2,21.4,29.91,West,270,0.0,-999.0,64,-99.99,,,0.00,Acu-Link.com,2013-03-11 12:02:00,
2013-03-11 06:17:00,31.5,21.5,29.92,ESE,112,0.0,-999.0,66,-99.99,,,0.00,Acu-Link.com,2013-03-11 12:17:00,
2013-03-11 06:32:00,30.2,20.6,29.91,West,270,0.0,-999.0,67,-99.99,,,0.00,Acu-Link.com,2013-03-11 12:32:00,
2013-03-11 06:47:00,28.9,20.0,29.91,ENE,67,0.0,-999.0,69,-99.99,,,0.00,Acu-Link.com,2013-03-11 12:47:00,
2013-03-11 07:03:00,27.9,19.4,29.92,South,180,0.0,-999.0,70,-99.99,,,0.00,Acu-Link.com,2013-03-11 13:03:00,
2013-03-11 07:18:00,27.0,19.2,29.92,West,270,0.0,-999.0,72,-99.99,,,0.00,Acu-Link.com,2013-03-11 13:18:00,
2013-03-11 07:33:00,26.6,19.5,29.91,ENE,67,0.0,-999.0,74,-99.99,,,0.00,Acu-Link.com,2013-03-11 13:33:00,
2013-03-11 07:49:00,26.2,19.7,29.92,SE,135,0.0,-999.0,76,-99.99,,,0.00,Acu-Link.com,2013-03-11 13:49:00,
2013-03-11 08:04:00,27.5,20.9,29.93,ESE,112,0.0,-999.0,76,-99.99,,,0.00,Acu-Link.com,2013-03-11 14:04:00,
2013-03-11 08:19:00,28.6,21.4,29.93,ESE,112,0.0,-999.0,74,-99.99,,,0.00,Acu-Link.com,2013-03-11 14:19:00,
2013-03-11 08:35:00,32.9,23.5,29.94,SW,225,1.7,-999.0,68,-99.99,,,0.00,Acu-Link.com,2013-03-11 14:35:00,
2013-03-11 08:50:00,36.7,24.5,29.96,ESE,112,0.0,-999.0,61,-99.99,,,0.00,Acu-Link.com,2013-03-11 14:50:00,
2013-03-11 09:05:00,41.5,25.7,29.95,East,90,0.0,-999.0,53,-99.99,,,0.00,Acu-Link.com,2013-03-11 15:05:00,
2013-03-11 09:21:00,47.7,27.9,29.97,SW,225,0.0,-999.0,46,-99.99,,,0.00,Acu-Link.com,2013-03-11 15:21:00,
2013-03-11 09:51:00,48.0,27.1,29.96,WSW,247,1.7,-999.0,44,-99.99,,,0.00,Acu-Link.com,2013-03-11 15:51:00,
2013-03-11 10:07:00,50.4,27.0,29.95,South,180,0.0,-999.0,40,-99.99,,,0.00,Acu-Link.com,2013-03-11 16:07:00,
2013-03-11 10:22:00,51.3,26.6,29.95,NW,315,2.7,-999.0,38,-99.99,,,0.00,Acu-Link.com,2013-03-11 16:22:00,
2013-03-11 10:37:00,50.4,26.4,29.94,ESE,112,2.2,-999.0,39,-99.99,,,0.00,Acu-Link.com,2013-03-11 16:37:00,
2013-03-11 10:52:00,52.5,27.0,29.95,SSW,202,2.7,-999.0,37,-99.99,,,0.00,Acu-Link.com,2013-03-11 16:52:00,
2013-03-11 11:07:00,52.2,26.1,29.95,NNE,22,2.2,-999.0,36,-99.99,,,0.00,Acu-Link.com,2013-03-11 17:07:00,
2013-03-11 11:22:00,54.1,26.4,29.95,ESE,112,0.0,-999.0,34,-99.99,,,0.00,Acu-Link.com,2013-03-11 17:22:00,
2013-03-11 11:38:00,51.8,25.7,29.95,ENE,67,1.7,-999.0,36,-99.99,,,0.00,Acu-Link.com,2013-03-11 17:38:00,
2013-03-11 11:53:00,56.5,27.8,29.93,NNW,337,0.0,-999.0,33,-99.99,,,0.00,Acu-Link.com,2013-03-11 17:53:00,
2013-03-11 12:08:00,56.8,28.0,29.92,SW,225,0.0,-999.0,33,-99.99,,,0.00,Acu-Link.com,2013-03-11 18:08:00,
2013-03-11 12:24:00,58.3,28.6,29.91,SE,135,0.0,-999.0,32,-99.99,,,0.00,Acu-Link.com,2013-03-11 18:24:00,
2013-03-11 12:39:00,59.2,28.6,29.90,East,90,1.1,-999.0,31,-99.99,,,0.00,Acu-Link.com,2013-03-11 18:39:00,
2013-03-11 12:54:00,57.9,26.7,29.90,North,0,4.2,-999.0,30,-99.99,,,0.00,Acu-Link.com,2013-03-11 18:54:00,
2013-03-11 13:10:00,59.5,28.8,29.90,SSE,157,1.1,-999.0,31,-99.99,,,0.00,Acu-Link.com,2013-03-11 19:10:00,
2013-03-11 13:25:00,59.7,28.2,29.88,SSE,157,4.2,-999.0,30,-99.99,,,0.00,Acu-Link.com,2013-03-11 19:25:00,
2013-03-11 13:40:00,61.0,28.5,29.88,West,270,2.7,-999.0,29,-99.99,,,0.00,Acu-Link.com,2013-03-11 19:40:00,
2013-03-11 13:56:00,61.2,28.7,29.86,ESE,112,6.3,-999.0,29,-99.99,,,0.00,Acu-Link.com,2013-03-11 19:56:00,
2013-03-11 14:42:00,62.8,26.5,29.82,SE,135,0.0,-999.0,25,-99.99,,,0.00,Acu-Link.com,2013-03-11 20:42:00,
2013-03-11 14:57:00,63.9,25.4,29.82,ESE,112,2.2,-999.0,23,-99.99,,,0.00,Acu-Link.com,2013-03-11 20:57:00,
2013-03-11 15:12:00,65.3,25.5,29.81,NNW,337,3.2,-999.0,22,-99.99,,,0.00,Acu-Link.com,2013-03-11 21:12:00,
2013-03-11 15:27:00,64.8,24.0,29.80,WSW,247,5.8,-999.0,21,-99.99,,,0.00,Acu-Link.com,2013-03-11 21:27:00,
2013-03-11 15:58:00,66.4,22.9,29.79,North,0,3.7,-999.0,19,-99.99,,,0.00,Acu-Link.com,2013-03-11 21:58:00,
2013-03-11 16:13:00,66.7,21.9,29.79,South,180,2.7,-999.0,18,-99.99,,,0.00,Acu-Link.com,2013-03-11 22:13:00,
2013-03-11 16:28:00,66.6,20.4,29.78,South,180,4.2,-999.0,17,-99.99,,,0.00,Acu-Link.com,2013-03-11 22:28:00,
2013-03-11 16:43:00,67.1,20.8,29.78,SW,225,4.7,-999.0,17,-99.99,,,0.00,Acu-Link.com,2013-03-11 22:43:00,
2013-03-11 16:58:00,66.2,18.7,29.77,NNW,337,3.2,-999.0,16,-99.99,,,0.00,Acu-Link.com,2013-03-11 22:58:00,
2013-03-11 17:14:00,66.0,7.9,29.76,SSW,202,3.2,-999.0,10,-99.99,,,0.00,Acu-Link.com,2013-03-11 23:14:00,
2013-03-11 17:29:00,65.8,-37.3,29.76,WSW,247,2.7,-999.0,1,-99.99,,,0.00,Acu-Link.com,2013-03-11 23:29:00,
2013-03-11 17:44:00,64.4,-38.2,29.76,West,270,3.2,-999.0,1,-99.99,,,0.00,Acu-Link.com,2013-03-11 23:44:00,
2013-03-11 18:00:00,64.0,-38.4,29.76,NNW,337,3.7,-999.0,1,-99.99,,,0.00,Acu-Link.com,2013-03-12 00:00:00,
2013-03-11 18:15:00,63.5,-38.7,29.76,West,270,3.7,-999.0,1,-99.99,,,0.00,Acu-Link.com,2013-03-12 00:15:00,
2013-03-11 18:30:00,63.3,-38.9,29.77,West,270,1.7,-999.0,1,-99.99,,,0.00,Acu-Link.com,2013-03-12 00:30:00,
2013-03-11 18:45:00,61.5,13.4,29.76,ESE,112,3.2,-999.0,15,-99.99,,,0.00,Acu-Link.com,2013-03-12 00:45:00,
2013-03-11 19:01:00,59.9,15.0,29.79,SSE,157,0.0,-999.0,17,-99.99,,,0.00,Acu-Link.com,2013-03-12 01:01:00,
2013-03-11 19:16:00,58.3,15.0,29.77,ENE,67,0.0,-999.0,18,-99.99,,,0.00,Acu-Link.com,2013-03-12 01:16:00,
2013-03-11 19:31:00,57.2,16.5,29.78,SSE,157,2.2,-999.0,20,-99.99,,,0.00,Acu-Link.com,2013-03-12 01:31:00,
2013-03-11 19:47:00,56.5,17.1,29.77,NNW,337,1.1,-999.0,21,-99.99,,,0.00,Acu-Link.com,2013-03-12 01:47:00,
2013-03-11 20:02:00,55.6,18.4,29.79,SSW,202,2.7,-999.0,23,-99.99,,,0.00,Acu-Link.com,2013-03-12 02:02:00,
2013-03-11 20:17:00,55.0,18.9,29.80,ESE,112,1.7,-999.0,24,-99.99,,,0.00,Acu-Link.com,2013-03-12 02:17:00,
2013-03-11 20:33:00,54.7,18.6,29.80,ESE,112,0.0,-999.0,24,-99.99,,,0.00,Acu-Link.com,2013-03-12 02:33:00,
2013-03-11 20:48:00,53.8,19.7,29.80,South,180,2.2,-999.0,26,-99.99,,,0.00,Acu-Link.com,2013-03-12 02:48:00,
2013-03-11 21:03:00,54.0,20.8,29.81,East,90,2.7,-999.0,27,-99.99,,,0.00,Acu-Link.com,2013-03-12 03:03:00,
2013-03-11 21:18:00,53.2,22.6,29.82,North,0,2.7,-999.0,30,-99.99,,,0.00,Acu-Link.com,2013-03-12 03:18:00,
2013-03-11 21:34:00,53.2,24.1,29.82,ESE,112,1.7,-999.0,32,-99.99,,,0.00,Acu-Link.com,2013-03-12 03:34:00,
2013-03-11 21:49:00,52.9,24.6,29.84,NNE,22,7.3,-999.0,33,-99.99,,,0.00,Acu-Link.com,2013-03-12 03:49:00,
2013-03-11 22:04:00,52.7,25.8,29.85,NE,45,5.8,-999.0,35,-99.99,,,0.00,Acu-Link.com,2013-03-12 04:04:00,
2013-03-11 22:20:00,51.8,26.4,29.85,West,270,3.7,-999.0,37,-99.99,,,0.00,Acu-Link.com,2013-03-12 04:20:00,
2013-03-11 22:35:00,50.4,26.4,29.86,South,180,1.7,-999.0,39,-99.99,,,0.00,Acu-Link.com,2013-03-12 04:35:00,
2013-03-11 22:50:00,49.6,26.3,29.86,NNE,22,2.2,-999.0,40,-99.99,,,0.00,Acu-Link.com,2013-03-12 04:50:00,
2013-03-11 23:06:00,49.5,26.8,29.87,NNE,22,2.7,-999.0,41,-99.99,,,0.00,Acu-Link.com,2013-03-12 05:06:00,
2013-03-11 23:21:00,48.7,26.1,29.87,North,0,1.1,-999.0,41,-99.99,,,0.00,Acu-Link.com,2013-03-12 05:21:00,
2013-03-11 23:36:00,48.2,26.2,29.87,West,270,1.1,-999.0,42,-99.99,,,0.00,Acu-Link.com,2013-03-12 05:36:00,
2013-03-11 23:52:00,47.7,26.3,29.86,ESE,112,0.0,-999.0,43,-99.99,,,0.00,Acu-Link.com,2013-03-12 05:52:00,